TimeCDT,TemperatureF,Dew PointF,Humidity,Sea Level PressureIn,VisibilityMPH,Wind Direction,Wind SpeedMPH,Gust SpeedMPH,PrecipitationIn,Events,Conditions,WindDirDegrees,DateUTC
12:15 AM,28.4,21.2,74,29.99,3.0,ENE,3.5,-,N/A,,Haze,60,2013-03-15 05:15:00
12:35 AM,28.4,21.2,74,30.00,4.0,Calm,Calm,-,N/A,,Haze,0,2013-03-15 05:35:00
12:55 AM,30.2,23.0,75,30.00,4.0,Calm,Calm,-,N/A,,Haze,0,2013-03-15 05:55:00
1:15 AM,32.0,24.8,75,30.00,5.0,NW,4.6,-,N/A,,Haze,310,2013-03-15 06:15:00
1:35 AM,33.8,24.8,70,30.00,5.0,NW,3.5,-,N/A,,Haze,320,2013-03-15 06:35:00
1:55 AM,33.8,24.8,70,29.99,5.0,Calm,Calm,-,N/A,,Haze,0,2013-03-15 06:55:00
2:15 AM,33.8,24.8,70,30.00,5.0,WNW,3.5,-,N/A,,Haze,300,2013-03-15 07:15:00
2:35 AM,33.8,26.6,75,30.01,5.0,NW,5.8,-,N/A,,Haze,310,2013-03-15 07:35:00
2:55 AM,33.8,26.6,75,30.01,5.0,NW,9.2,-,N/A,,Haze,310,2013-03-15 07:55:00
3:15 AM,33.8,26.6,75,30.01,5.0,NW,9.2,-,N/A,,Haze,320,2013-03-15 08:15:00
3:35 AM,35.6,26.6,70,29.99,5.0,North,8.1,-,N/A,,Clear,350,2013-03-15 08:35:00
3:55 AM,35.6,26.6,70,29.98,5.0,North,8.1,-,N/A,,Scattered Clouds,360,2013-03-15 08:55:00
4:15 AM,35.6,26.6,70,29.96,5.0,NNE,10.4,-,N/A,,Clear,30,2013-03-15 09:15:00
4:35 AM,35.6,26.6,70,29.97,5.0,Calm,Calm,-,N/A,,Mostly Cloudy,0,2013-03-15 09:35:00
4:55 AM,35.6,26.6,70,29.98,5.0,Calm,Calm,-,N/A,,Overcast,0,2013-03-15 09:55:00
5:15 AM,35.6,26.6,70,29.96,4.0,Calm,Calm,-,N/A,,Overcast,0,2013-03-15 10:15:00
5:35 AM,35.6,26.6,70,29.95,4.0,Calm,Calm,-,N/A,,Overcast,0,2013-03-15 10:35:00
5:55 AM,35.6,26.6,70,29.95,4.0,NNE,3.5,-,0.01,,Overcast,20,2013-03-15 10:55:00
6:15 AM,35.6,28.4,75,29.95,4.0,North,5.8,-,N/A,,Overcast,10,2013-03-15 11:15:00
6:35 AM,35.6,26.6,70,29.94,5.0,NNE,6.9,-,N/A,,Overcast,20,2013-03-15 11:35:00
6:55 AM,35.6,26.6,70,29.94,5.0,NE,9.2,-,N/A,,Haze,40,2013-03-15 11:55:00
7:15 AM,35.6,26.6,70,29.94,5.0,NE,5.8,-,N/A,,Mostly Cloudy,50,2013-03-15 12:15:00
7:35 AM,35.6,28.4,75,29.94,4.0,NE,5.8,-,N/A,,Overcast,40,2013-03-15 12:35:00
7:55 AM,35.6,28.4,75,29.93,4.0,NE,8.1,-,N/A,,Overcast,50,2013-03-15 12:55:00
8:15 AM,35.6,28.4,75,29.93,4.0,ENE,5.8,-,N/A,,Haze,60,2013-03-15 13:15:00
8:35 AM,37.4,28.4,70,29.92,5.0,NE,9.2,-,N/A,,Haze,50,2013-03-15 13:35:00
8:55 AM,37.4,28.4,70,29.93,5.0,NE,8.1,-,N/A,,Haze,50,2013-03-15 13:55:00
9:15 AM,37.4,28.4,70,29.92,4.0,ENE,11.5,-,N/A,,Overcast,70,2013-03-15 14:15:00
9:35 AM,37.4,28.4,70,29.92,5.0,ENE,10.4,-,N/A,,Haze,70,2013-03-15 14:35:00
9:55 AM,37.4,28.4,70,29.92,7.0,ENE,12.7,-,N/A,,Overcast,60,2013-03-15 14:55:00
10:15 AM,37.4,28.4,70,29.93,7.0,ENE,11.5,-,N/A,,Overcast,60,2013-03-15 15:15:00
10:35 AM,37.4,28.4,70,29.93,5.0,NE,9.2,-,N/A,,Haze,50,2013-03-15 15:35:00
10:55 AM,37.4,28.4,70,29.93,5.0,NE,9.2,-,N/A,,Haze,50,2013-03-15 15:55:00
11:15 AM,37.4,28.4,70,29.94,5.0,NE,8.1,-,N/A,,Haze,50,2013-03-15 16:15:00
11:35 AM,37.4,28.4,70,29.92,5.0,East,11.5,-,N/A,,Haze,80,2013-03-15 16:35:00
11:55 AM,37.4,28.4,70,29.91,5.0,ENE,10.4,-,N/A,,Haze,70,2013-03-15 16:55:00
12:15 PM,37.4,28.4,70,29.92,5.0,ENE,10.4,-,N/A,,Haze,70,2013-03-15 17:15:00
12:35 PM,37.4,28.4,70,29.92,5.0,ENE,11.5,-,N/A,,Haze,70,2013-03-15 17:35:00
12:55 PM,37.4,28.4,70,29.93,5.0,ENE,9.2,-,N/A,,Haze,60,2013-03-15 17:55:00
1:15 PM,37.4,28.4,70,29.92,5.0,ENE,11.5,-,N/A,,Haze,70,2013-03-15 18:15:00
1:35 PM,37.4,28.4,70,29.91,5.0,ENE,11.5,-,N/A,,Haze,60,2013-03-15 18:35:00
1:55 PM,37.4,28.4,70,29.90,5.0,East,11.5,-,N/A,,Haze,80,2013-03-15 18:55:00
2:15 PM,37.4,28.4,70,29.89,5.0,ENE,12.7,-,N/A,,Haze,70,2013-03-15 19:15:00
2:35 PM,37.4,28.4,70,29.87,5.0,ENE,13.8,-,N/A,,Haze,70,2013-03-15 19:35:00
2:55 PM,37.4,28.4,70,29.87,5.0,East,12.7,-,N/A,,Haze,80,2013-03-15 19:55:00
3:15 PM,37.4,26.6,65,29.87,7.0,East,9.2,-,N/A,,Overcast,80,2013-03-15 20:15:00
3:35 PM,37.4,28.4,70,29.86,5.0,East,11.5,-,N/A,,Haze,90,2013-03-15 20:35:00
3:55 PM,37.4,28.4,70,29.84,4.0,East,9.2,-,N/A,,Overcast,90,2013-03-15 20:55:00
4:15 PM,37.4,28.4,70,29.84,5.0,East,10.4,-,N/A,,Overcast,90,2013-03-15 21:15:00
4:35 PM,37.4,28.4,70,29.84,5.0,East,12.7,-,N/A,,Overcast,90,2013-03-15 21:35:00
4:55 PM,37.4,28.4,70,29.84,7.0,East,8.1,-,N/A,,Overcast,90,2013-03-15 21:55:00
5:15 PM,37.4,28.4,70,29.84,7.0,East,6.9,-,N/A,,Overcast,90,2013-03-15 22:15:00
5:35 PM,37.4,28.4,70,29.83,10.0,East,11.5,-,N/A,,Overcast,80,2013-03-15 22:35:00
5:55 PM,37.4,26.6,65,29.81,7.0,East,11.5,-,N/A,,Overcast,90,2013-03-15 22:55:00
6:15 PM,37.4,28.4,70,29.85,7.0,NE,8.1,-,N/A,,Overcast,40,2013-03-15 23:15:00
6:35 PM,37.4,28.4,70,29.87,7.0,NNE,11.5,-,N/A,,Overcast,30,2013-03-15 23:35:00
6:55 PM,35.6,28.4,75,29.86,5.0,NE,9.2,-,N/A,,Haze,40,2013-03-15 23:55:00
7:15 PM,35.6,28.4,75,29.86,3.0,NE,8.1,-,N/A,Snow,Light Snow,50,2013-03-16 00:15:00
7:35 PM,35.6,26.6,70,29.85,4.0,ENE,10.4,-,N/A,,Haze,60,2013-03-16 00:35:00
7:55 PM,33.8,26.6,75,29.88,5.0,NE,13.8,-,N/A,,Haze,40,2013-03-16 00:55:00
8:15 PM,33.8,26.6,75,29.87,7.0,ENE,12.7,-,N/A,,Overcast,60,2013-03-16 01:15:00
8:35 PM,33.8,24.8,70,29.88,5.0,ENE,11.5,-,N/A,,Haze,60,2013-03-16 01:35:00
8:55 PM,33.8,24.8,70,29.88,5.0,ENE,9.2,-,N/A,,Haze,70,2013-03-16 01:55:00
9:15 PM,33.8,24.8,70,29.90,5.0,NE,10.4,-,N/A,,Haze,50,2013-03-16 02:15:00
9:35 PM,33.8,24.8,70,29.89,3.0,ENE,10.4,-,N/A,,Haze,70,2013-03-16 02:35:00
9:55 PM,32.0,24.8,75,29.92,7.0,NE,11.5,-,N/A,,Overcast,40,2013-03-16 02:55:00
10:15 PM,32.0,24.8,75,29.92,7.0,NE,9.2,-,N/A,,Overcast,50,2013-03-16 03:15:00
10:35 PM,32.0,24.8,75,29.92,7.0,NE,12.7,-,N/A,,Overcast,50,2013-03-16 03:35:00
10:55 PM,30.2,21.2,69,29.92,10.0,ENE,11.5,-,N/A,,Overcast,60,2013-03-16 03:55:00
11:15 PM,30.2,21.2,69,29.92,10.0,ENE,8.1,-,N/A,,Overcast,60,2013-03-16 04:15:00
11:35 PM,30.2,21.2,69,29.93,10.0,NE,9.2,-,N/A,,Overcast,50,2013-03-16 04:35:00
11:55 PM,30.2,21.2,69,29.93,10.0,NE,9.2,-,N/A,,Overcast,40,2013-03-16 04:55:00